Tracking 31011 objects as of 12-Jul-2025
HD Live streaming from Space Station
objects crossing your sky now

ONEWEB-0595

Track ONEWEB-0595 now!
10-day predictions
ONEWEB-0595 is classified as:


NORAD ID: 54661
Int'l Code: 2022-166V
Perigee: 1,183.3 km
Apogee: 1,186.5 km
Inclination: 87.9 °
Period: 108.9 minutes
Semi major axis: 7555 km
RCS: Unknown
Launch date: December 8, 2022
Source: United Kingdom (UK)
Launch site: AIR FORCE EASTERN TEST RANGE (AFETR)
Your satellite tracking list
Your tracking list is empty




NASA's NSSDC Master Catalog

Two Line Element Set (TLE):
1 54661U 22166V   25193.37968842 -.00000016  00000-0 -70890-4 0  9993
2 54661  87.9272 311.7581 0002060  93.6011 266.5359 13.21825008127111
Source of the keplerian elements: AFSPC